Location: Newark
(60.0000°N, 100.0000°E)
Time: 06:57:49
(UTC+00:00)

N. Korean satellite - Pass Details

Date: 24 November 2019
Orbit: 456 x 506 km, 97.2° (Epoch: 06 December)

Event Time Altitude Azimuth Distance (km) Brightness Sun altitude
Rises 09:56:50 0° 162° (SSE) 2,590 10.4 -9.4°
Reaches altitude 10° 09:58:54 10° 162° (SSE) 1,714 9.4 -9.6°
Maximum altitude 10:02:37 89° 70° (ENE) 515 6.6 -10.1°
Drops below altitude 10° 10:06:22 10° 345° (NNW) 1,736 9.3 -10.5°
Sets 10:08:28 0° 345° (NNW) 2,625 10.2 -10.7°
